DW6352 Weather Reports


time (UTC)temp
C
wind
direction
speed
KPH
gust
KPH
rain 1hr
cm
rain 24hr
cm
rain mn
cm
humidity
%
barometer
mb
20260831224512 28 250 8.0 14.5 0.00 0.00 0.00 47 1009.2
20260831223012 29 311 4.8 12.9 0.00 0.00 0.00 50 1009.3
20260831221529 30 270 3.2 12.9 0.00 0.00 0.00 50 1009.0
20260831220128 29 309 4.8 12.9 0.00 0.00 0.00 48 1009.0
20260831214624 30 332 3.2 16.1 0.00 0.00 0.00 48 1008.8
20260831213013 29 265 4.8 12.9 0.00 0.00 0.00 48 1008.9
20260831211516 30 340 4.8 16.1 0.00 0.00 0.00 48 1009.0
20260831210010 29 311 9.7 17.7 0.00 0.00 0.00 47 1008.9
20260831204515 29 254 9.7 17.7 0.00 0.00 0.00 50 1009.0
20260831203010 29 281 8.0 14.5 0.00 0.00 0.00 50 1009.0
20260831201512 29 311 8.0 16.1 0.00 0.00 0.00 50 1008.9
20260831200005 28 41 6.4 11.3 0.00 0.00 0.00 54 1008.7
20260831194521 28 304 6.4 12.9 0.00 0.00 0.00 54 1008.8
20260831193126 28 286 11.3 17.7 0.00 0.00 0.00 51 1008.8
20260831191506 28 307 4.8 20.9 0.00 0.00 0.00 51 1008.8
20260831190010 28 347 6.4 19.3 0.00 0.00 0.00 57 1008.7
20260831184508 28 292 12.9 17.7 0.00 0.00 0.00 56 1008.8
20260831183130 27 17 6.4 19.3 0.00 0.00 0.00 60 1008.6
20260831181628 27 328 8.0 19.3 0.00 0.00 0.00 65 1008.6
20260831180010 27 246 6.4 16.1 0.00 0.00 0.00 68 1008.7
20260831174508 27 304 6.4 14.5 0.00 0.00 0.00 68 1008.8
20260831173006 26 261 3.2 12.9 0.00 0.00 0.00 73 1008.9
20260831171515 26 307 6.4 16.1 0.00 0.00 0.00 73 1009.0
20260831170013 26 49 4.8 16.1 0.00 0.00 0.00 76 1009.1
20260831164510 26 319 4.8 9.7 0.00 0.00 0.00 78 1009.0
20260831163004 25 250 8.0 17.7 0.00 0.00 0.00 79 1008.8
20260831161627 25 304 6.4 12.9 0.00 0.00 0.00 81 1008.7
20260831160023 24 309 8.0 17.7 0.00 0.00 0.00 84 1008.7
20260831154508 23 301 4.8 17.7 0.00 0.00 0.00 86 1008.7
20260831153014 23 337 3.2 11.3 0.00 0.00 0.00 89 1008.6
20260831151626 23 290 3.2 12.9 0.00 0.00 0.00 91 1008.3
20260831150004 22 313 9.7 19.3 0.00 0.00 0.00 92 1008.0
20260831144521 22 306 9.7 17.7 0.00 0.00 0.00 93 1007.7
20260831143016 21 291 8.0 16.1 0.00 0.00 0.00 94 1007.7
20260831141507 21 321 3.2 6.4 0.00 0.00 0.00 94 1007.5
20260831140125 21 244 1.6 8.0 0.00 0.00 0.00 94 1007.5
20260831134516 21 298 3.2 6.4 0.00 0.00 0.00 94 1007.0
20260831133012 21 201 0.0 1.6 0.00 0.00 0.00 94 1006.9
20260831131517 20 201 0.0 1.6 0.00 0.00 0.00 94 1007.0
20260831130003 20 201 1.6 3.2 0.00 0.00 0.00 94 1007.0
20260831124509 20 201 0.0 0.0 0.00 0.00 0.00 94 1006.7
20260831123011 20 201 0.0 0.0 0.00 0.00 0.00 94 1006.3
20260831121510 18 201 0.0 1.6 0.00 0.00 0.00 94 1006.1
20260831120021 18 201 0.0 3.2 0.00 0.00 0.00 94 1005.8
20260831114514 18 201 0.0 0.0 0.00 0.00 0.00 93 1005.7
20260831113013 18 201 0.0 1.6 0.00 0.00 0.00 93 1005.7
20260831111629 19 201 0.0 4.8 0.00 0.00 0.00 93 1005.7
20260831110008 19 201 3.2 6.4 0.00 0.00 0.00 93 1005.5
20260831104505 19 201 3.2 6.4 0.00 0.00 0.00 93 1005.5
20260831103128 19 134 1.6 4.8 0.00 0.00 0.00 93 1005.4
20260831101509 19 134 0.0 3.2 0.00 0.00 0.00 92 1005.2
20260831100024 20 134 1.6 4.8 0.00 0.00 0.00 92 1005.1
20260831094523 20 134 1.6 4.8 0.00 0.00 0.00 92 1005.0
20260831093015 20 153 1.6 8.0 0.00 0.00 0.00 92 1005.2
20260831091505 20 198 1.6 6.4 0.00 0.00 0.00 92 1005.3
20260831090005 20 157 1.6 4.8 0.00 0.00 0.00 91 1005.2
20260831084507 20 164 0.0 8.0 0.00 0.00 0.00 91 1005.0
20260831083124 20 190 3.2 8.0 0.00 0.00 0.00 91 1004.9
20260831081517 20 132 3.2 6.4 0.00 0.00 0.00 90 1004.9
20260831080129 21 178 1.6 8.0 0.00 0.00 0.00 90 1004.9
20260831074513 21 166 1.6 9.7 0.00 0.00 0.00 89 1005.0
20260831073124 21 191 1.6 11.3 0.00 0.00 0.00 89 1005.0
20260831071516 21 111 4.8 16.1 0.00 0.00 0.00 89 1004.9
20260831070019 21 150 3.2 14.5 0.00 0.00 0.00 89 1005.1
20260831064511 21 116 6.4 14.5 0.00 0.00 0.00 88 1005.5
20260831063005 21 126 4.8 12.9 0.00 0.00 0.00 87 1005.6
20260831061515 22 141 4.8 14.5 0.00 0.00 0.00 87 1005.8
20260831060017 22 169 4.8 14.5 0.00 0.00 0.00 87 1005.9
20260831054519 22 180 6.4 14.5 0.00 0.00 0.00 87 1005.8
20260831053013 22 108 4.8 14.5 0.00 0.00 0.00 86 1006.0
20260831051518 22 153 4.8 14.5 0.00 0.00 0.00 87 1006.2
20260831050002 22 128 8.0 14.5 0.00 0.00 0.00 87 1006.4
20260831044512 22 131 3.2 12.9 0.00 0.00 0.00 87 1006.6
20260831043121 22 118 3.2 9.7 0.00 0.00 0.00 88 1006.9
20260831040128 21 118 3.2 6.4 0.00 0.00 0.00 90 1006.9
20260831034504 21 102 1.6 6.4 0.00 0.00 0.00 90 1006.8
20260831033126 22 99 1.6 4.8 0.00 0.00 0.00 89 1006.8
20260831031507 22 100 1.6 6.4 0.00 0.00 0.00 89 1006.8
20260831030009 22 99 3.2 6.4 0.00 0.00 0.00 88 1006.7
20260831024622 22 90 1.6 6.4 0.00 0.00 0.00 87 1006.6
20260831023007 22 58 3.2 12.9 0.00 0.00 0.00 87 1006.7
20260831021630 22 93 4.8 16.1 0.00 0.00 0.00 87 1006.5
20260831020006 23 98 8.0 16.1 0.00 0.00 0.00 86 1006.4
20260831014515 23 92 9.7 14.5 0.00 0.00 0.00 85 1006.4
20260831013010 23 88 6.4 14.5 0.00 0.00 0.00 85 1006.3
20260831011510 23 63 4.8 16.1 0.00 0.00 0.00 85 1006.3
20260831010007 23 81 6.4 20.9 0.00 0.00 0.00 84 1006.2
20260831004628 23 71 8.0 16.1 0.00 0.00 0.00 83 1006.4
20260831003124 24 46 4.8 16.1 0.00 0.00 0.00 82 1006.5
20260831001621 24 109 4.8 16.1 0.00 0.00 0.00 82 1006.6
20260831000018 24 92 8.0 19.3 0.00 0.00 0.00 81 1006.6
20260830234507 25 87 9.7 17.7 0.00 0.00 0.00 79 1006.6
20260830231504 25 92 11.3 24.1 0.00 0.00 0.00 78 1006.6
20260830230021 26 110 8.0 20.9 0.00 0.00 0.00 77 1006.6